Wind_Speed
36 36 37 36 37 38 40 40 40 40 41 41 43 44 44 44 44 44 45 46 47 47 46 47 48 48 49 49 50 51 51 50 51 51 50 49 48 48
34 34 35 36 37 37 38 37 37 38 39 39 40 42 44 44 44 45 46 47 47 45 45 46 46 46 47 48 50 50 49 50 50 50 49 49 49 47
32 33 34 35 35 36 36 35 36 37 37 38 38 40 41 41 41 42 44 44 43 42 42 44 45 46 47 47 47 47 47 48 48 48 47 47 47 46
31 30 32 34 34 34 34 34 34 35 35 36 36 38 38 39 39 40 40 40 40 39 39 41 43 44 44 44 43 44 45 46 45 45 44 44 43 43
30 30 31 31 32 31 31 32 33 33 33 34 34 34 35 36 37 37 37 37 38 37 38 39 40 41 41 41 42 43 44 43 42 41 40 40 40 39
29 29 30 29 29 30 30 31 30 31 31 32 32 32 32 32 34 34 34 34 35 37 38 38 39 40 39 39 40 41 41 40 39 38 38 38 37 37
28 28 28 27 27 28 27 27 27 28 29 29 29 29 29 29 30 31 33 33 35 35 35 36 36 37 37 37 37 39 39 38 36 36 36 36 35 36
28 27 26 26 26 25 26 26 26 27 27 27 26 27 27 28 29 31 32 32 32 32 33 33 33 34 34 34 35 36 36 34 34 34 34 34 33 34
26 25 24 24 23 24 25 25 26 26 26 26 26 26 27 28 29 30 30 30 29 29 30 30 30 31 31 31 31 32 32 31 30 31 31 31 31 31
24 24 23 23 23 23 24 24 24 25 25 26 26 26 26 26 27 28 28 28 29 29 30 30 29 29 29 29 30 31 30 28 27 27 27 27 27 27
23 22 22 22 22 23 23 24 25 25 26 26 26 27 27 27 27 27 27 27 27 28 29 29 28 28 28 27 27 26 25 24 24 24 23 23 24 23
22 22 21 22 22 23 24 25 26 26 26 26 26 27 27 27 27 27 27 27 26 26 26 26 26 25 24 24 25 24 23 22 21 21 21 21 20 21
21 21 21 22 22 23 25 25 26 26 26 26 26 25 25 25 25 25 25 26 25 25 25 24 24 23 23 23 23 23 21 19 19 19 19 19 18 18
22 21 21 22 22 23 24 25 26 25 25 25 24 24 23 23 23 24 23 23 24 24 24 23 23 22 22 22 21 21 19 18 18 18 18 18 18 18
22 22 22 23 23 23 24 25 24 24 24 23 23 22 22 22 22 22 22 21 21 22 22 22 21 20 20 20 20 19 17 17 16 17 17 17 16 16
23 23 23 23 23 24 24 24 23 23 22 22 21 21 21 21 20 20 20 20 20 20 21 21 20 19 18 18 17 16 14 14 14 15 15 15 14 14
24 23 24 23 24 24 23 23 22 22 22 21 21 21 20 20 19 19 19 20 20 20 20 19 18 17 16 15 14 13 13 12 12 13 13 12 12 12
24 24 24 24 24 24 23 22 22 22 21 20 20 20 20 19 19 19 19 19 20 19 19 17 16 15 14 13 12 12 11 11 10 10 10 10 10 10
24 24 24 24 24 23 22 22 22 21 21 20 20 19 20 20 19 19 19 19 19 18 17 16 14 14 14 13 11 10 9 9 9 9 8 7 7 7
23 23 24 24 23 22 21 21 21 20 20 19 20 20 20 20 19 19 18 18 18 17 15 14 13 13 12 11 10 8 7 7 7 7 6 6 6 5
23 24 24 23 22 21 20 20 20 20 19 19 20 20 19 19 19 18 18 18 17 16 14 13 12 11 11 10 8 6 6 5 5 5 4 5 5 4
24 24 24 23 21 21 20 20 19 19 19 20 20 20 19 19 18 17 17 16 15 14 13 11 10 9 9 8 6 6 5 5 5 4 4 4 4 3
25 24 23 22 21 20 20 20 19 19 19 20 20 19 19 18 16 15 15 14 12 11 11 9 9 8 7 7 6 5 5 5 5 4 3 3 2 2
Wind_Direction
272 271 271 272 272 271 269 271 272 269 266 267 270 270 271 272 272 272 273 273 272 272 273 274 276 277 277 276 276 277 277 277 276 275 274 274 275 276
276 273 273 273 273 272 272 272 272 272 270 270 270 272 273 274 274 274 273 273 274 273 273 275 276 278 279 277 276 277 277 277 277 276 275 275 275 276
278 277 276 275 274 272 272 272 274 274 273 272 273 274 276 275 275 275 275 274 274 275 276 277 278 278 279 279 278 277 276 276 277 276 275 275 274 274
279 281 280 278 275 272 272 273 276 275 275 275 277 277 277 277 277 276 276 275 275 278 279 280 280 280 280 281 279 279 277 277 277 277 276 274 274 274
282 282 282 278 275 272 273 275 277 275 276 278 281 280 279 279 279 277 277 276 277 280 280 281 282 282 282 282 281 281 280 279 278 278 276 275 274 275
286 285 284 278 275 274 276 277 277 277 278 281 282 282 282 281 281 279 277 278 280 281 282 282 281 282 283 284 282 282 284 281 278 278 276 276 274 275
287 285 285 281 277 276 277 278 279 281 282 283 283 284 284 283 283 282 281 283 283 283 283 283 283 285 286 286 285 286 287 284 279 277 277 276 274 276
289 287 286 281 278 276 278 280 282 285 285 286 286 287 286 285 286 286 286 286 286 284 284 286 287 286 286 286 285 287 288 285 279 277 277 275 274 274
289 286 284 281 278 279 280 282 285 286 287 287 287 287 287 286 287 288 287 286 288 289 289 289 287 286 285 285 285 288 288 284 279 277 275 273 273 272
292 288 285 282 279 280 282 284 286 288 287 287 288 288 287 289 290 289 287 287 288 291 291 291 289 286 284 286 286 288 287 282 278 276 273 272 273 273
292 289 285 281 281 283 284 286 287 287 287 287 289 289 290 290 290 290 291 291 292 294 293 291 288 286 284 287 289 289 286 280 276 274 273 272 273 272
291 289 285 283 284 287 287 287 287 287 287 287 289 290 290 288 285 287 291 294 296 297 293 291 288 287 288 289 293 294 290 283 276 272 272 271 270 270
290 289 286 285 286 288 290 290 289 289 289 289 290 291 291 290 289 289 290 293 295 296 295 293 291 291 292 293 295 296 292 282 274 270 268 267 266 268
290 289 287 287 289 291 292 291 291 291 291 289 290 290 291 291 291 291 292 294 296 297 297 296 296 294 293 294 296 295 287 277 272 268 268 267 265 268
289 289 288 289 289 290 292 292 292 291 290 289 290 290 290 291 291 292 293 296 299 298 298 298 296 295 294 294 296 294 285 276 271 268 266 263 265 271
288 289 290 290 289 290 291 292 293 292 290 289 290 290 290 292 293 294 295 297 299 299 298 297 294 294 293 295 295 291 284 276 270 267 264 262 263 267
289 290 290 291 290 290 290 291 291 292 291 290 290 289 289 292 294 295 296 298 301 300 298 297 295 294 293 295 293 289 283 274 269 265 263 261 262 262
290 293 293 292 291 290 289 289 289 290 291 291 289 288 289 293 294 293 296 297 299 299 298 296 294 292 291 293 293 288 281 270 265 262 259 257 261 261
291 293 294 294 292 291 289 288 289 290 289 289 289 288 289 292 293 293 295 296 297 297 296 293 291 291 292 292 292 287 280 267 260 255 255 259 261 260
291 292 294 293 292 291 290 289 289 289 288 287 288 288 289 290 292 293 293 295 297 297 294 290 288 287 290 291 291 284 274 262 257 254 259 264 257 250
290 291 293 292 291 290 289 289 288 288 287 288 289 289 289 289 290 291 292 294 293 291 288 285 281 281 283 285 283 275 270 254 248 247 251 255 250 240
290 291 291 291 289 288 287 287 287 286 286 287 290 291 289 288 289 290 290 290 290 287 284 281 276 274 274 277 274 269 265 246 235 228 233 248 247 229
289 289 288 287 287 286 286 287 286 286 287 287 289 290 290 289 287 287 286 286 286 282 278 275 270 268 270 268 262 260 250 225 208 209 223 236 227 186
Height
5615 5614 5614 5614 5614 5614 5614 5614 5614 5615 5618 5617 5617 5616 5616 5616 5616 5615 5615 5614 5614 5614 5613 5613 5612 5610 5609 5608 5607 5605 5603 5602 5600 5598 5597 5596 5596 5595
5606 5605 5605 5605 5605 5605 5605 5604 5604 5605 5606 5607 5606 5605 5605 5604 5604 5603 5603 5602 5602 5601 5600 5600 5598 5597 5596 5594 5593 5592 5590 5589 5587 5586 5585 5584 5583 5583
5598 5597 5597 5596 5595 5596 5596 5596 5596 5596 5596 5597 5596 5595 5594 5593 5593 5592 5591 5590 5590 5589 5589 5587 5586 5584 5583 5581 5580 5578 5577 5575 5574 5573 5572 5571 5571 5571
5591 5590 5589 5587 5587 5587 5587 5587 5587 5587 5587 5587 5587 5586 5585 5583 5582 5582 5581 5580 5579 5579 5577 5576 5574 5573 5570 5569 5567 5565 5564 5562 5561 5560 5560 5559 5559 5559
5584 5583 5581 5580 5579 5579 5579 5579 5579 5578 5578 5577 5577 5576 5575 5573 5572 5572 5571 5570 5569 5568 5567 5565 5563 5561 5559 5557 5556 5554 5552 5551 5550 5549 5548 5548 5548 5548
5577 5575 5574 5572 5572 5572 5572 5572 5571 5570 5570 5569 5568 5568 5566 5564 5563 5563 5562 5561 5560 5558 5556 5554 5552 5550 5548 5546 5545 5543 5541 5539 5538 5538 5538 5538 5538 5539
5571 5569 5568 5566 5566 5565 5565 5565 5564 5563 5562 5561 5560 5559 5558 5556 5555 5554 5553 5553 5551 5549 5546 5545 5542 5540 5538 5535 5533 5532 5530 5528 5528 5528 5528 5528 5529 5530
5565 5563 5562 5560 5560 5559 5559 5559 5558 5556 5555 5554 5553 5551 5550 5549 5547 5546 5545 5544 5542 5541 5537 5535 5532 5530 5528 5526 5524 5522 5521 5519 5519 5519 5519 5519 5520 5521
5559 5557 5556 5555 5554 5554 5554 5553 5552 5550 5549 5547 5546 5545 5543 5542 5540 5538 5536 5534 5533 5530 5528 5526 5523 5521 5519 5517 5515 5514 5512 5511 5511 5511 5511 5511 5512 5513
5553 5552 5551 5550 5549 5548 5548 5547 5546 5544 5543 5541 5540 5538 5537 5534 5532 5530 5528 5526 5525 5522 5519 5517 5515 5513 5511 5509 5507 5505 5504 5503 5503 5503 5503 5504 5505 5506
5549 5547 5546 5545 5544 5543 5542 5541 5540 5538 5537 5535 5534 5531 5529 5527 5525 5523 5521 5519 5517 5514 5511 5509 5507 5506 5504 5503 5500 5498 5497 5496 5496 5496 5496 5497 5498 5498
5544 5542 5541 5540 5539 5537 5536 5535 5534 5532 5531 5529 5527 5525 5522 5521 5519 5516 5514 5512 5510 5508 5505 5502 5500 5499 5498 5496 5494 5492 5490 5489 5489 5490 5490 5491 5491 5492
5539 5538 5536 5535 5534 5532 5531 5529 5527 5525 5524 5522 5520 5518 5516 5513 5512 5510 5507 5505 5503 5501 5499 5496 5494 5492 5491 5490 5488 5486 5484 5483 5483 5484 5484 5485 5486 5486
5535 5533 5531 5530 5528 5527 5525 5523 5521 5518 5517 5515 5513 5511 5509 5507 5505 5503 5501 5499 5496 5494 5492 5490 5488 5486 5485 5483 5482 5480 5479 5478 5478 5479 5479 5480 5480 5481
5529 5528 5526 5524 5523 5521 5519 5516 5514 5512 5510 5508 5506 5505 5503 5501 5499 5497 5495 5493 5490 5488 5486 5484 5482 5481 5479 5478 5476 5475 5474 5473 5473 5473 5474 5475 5476 5477
5524 5522 5520 5518 5516 5515 5513 5511 5508 5506 5504 5502 5501 5499 5497 5495 5493 5491 5489 5487 5485 5483 5480 5478 5476 5475 5474 5472 5471 5470 5469 5469 5469 5469 5470 5471 5471 5472
5518 5517 5515 5513 5511 5509 5507 5505 5502 5501 5498 5497 5495 5493 5492 5490 5488 5486 5484 5482 5479 5477 5475 5473 5471 5470 5469 5468 5466 5465 5464 5464 5464 5465 5466 5467 5468 5468
5512 5510 5508 5506 5504 5502 5500 5499 5497 5495 5493 5491 5489 5488 5486 5484 5483 5481 5479 5477 5475 5473 5470 5468 5467 5466 5465 5464 5463 5461 5461 5461 5462 5462 5463 5464 5465 5465
5506 5504 5502 5500 5498 5496 5494 5493 5491 5489 5487 5485 5484 5482 5481 5479 5478 5476 5474 5472 5470 5468 5466 5464 5462 5462 5461 5460 5459 5458 5458 5459 5459 5460 5461 5461 5462 5462
5500 5498 5496 5494 5492 5490 5488 5487 5485 5483 5481 5480 5478 5477 5475 5474 5472 5470 5468 5467 5465 5463 5461 5460 5458 5458 5457 5457 5457 5456 5456 5456 5457 5458 5458 5459 5459 5460
5494 5492 5490 5487 5485 5484 5482 5481 5479 5478 5476 5474 5473 5471 5470 5468 5467 5465 5463 5461 5460 5459 5457 5456 5455 5454 5454 5454 5454 5454 5454 5454 5455 5456 5456 5457 5458 5458
5487 5485 5483 5481 5479 5478 5477 5475 5474 5472 5471 5469 5467 5466 5464 5462 5461 5460 5458 5457 5455 5454 5453 5453 5452 5452 5452 5452 5452 5452 5452 5453 5453 5454 5455 5456 5457 5457
5480 5478 5476 5475 5473 5472 5470 5469 5468 5466 5465 5463 5462 5460 5459 5457 5456 5454 5453 5452 5451 5450 5450 5450 5449 5449 5449 5449 5450 5450 5451 5452 5452 5453 5454 5455 5456 5456